Location: R�serve Fauniques des Laurentides
(47.3100°N, 71.1900°W)
Time: 02:37:52
(UTC-05:00)

Amateur Radio Satellites - All Passes

Search period start: 28 February 2017 02:07
Search period end: 01 March 2017 02:07
Location: R�serve Fauniques des Laurentides, 47.3100°N, 71.1900°W

Satellite Date Start Highest point End Downlink Frequencies (MHz)
Time Altitude Azimuth
Oscar 19 28 Feb 02:11:53 02:16:41 42° 293° (WNW) 02:21:30 437.125/150
STARS 28 Feb 02:19:15 02:21:17 13° 57° (ENE) 02:23:19 437.465
AO-85 28 Feb 02:35:00 02:38:27 22° 115° (ESE) 02:41:44 145.980
AO-7 28 Feb 02:36:48 02:44:15 35° 96° (E) 02:51:36 .
CUBESAT XI-V 28 Feb 02:48:31 02:52:35 31° 66° (ENE) 02:56:39 437.345
ITAMSAT 1 28 Feb 02:51:39 02:56:48 53° 100° (E) 03:01:53 435.822/435.867
MOZHAYETS 4 28 Feb 03:18:34 03:22:32 28° 266° (W) 03:26:32
Gurwin Techsat 1B 28 Feb 03:21:02 03:25:03 22° 301° (WNW) 03:29:03 435.225
M-CUBED/EXP-1 PRIME 28 Feb 03:21:13 03:24:07 30° 63° (ENE) 03:27:03 437.505
ITUPSAT 1 28 Feb 03:22:26 03:24:01 11° 273° (W) 03:25:37 437.325
KKS-1 28 Feb 03:26:59 03:31:24 73° 258° (WSW) 03:35:52 437.445
SO-50 28 Feb 03:39:54 03:42:53 17° 28° (NNE) 03:45:50 436.795
STARS 28 Feb 03:52:37 03:56:59 84° 253° (WSW) 04:01:25 437.465
RS-15 28 Feb 04:05:49 04:13:33 20° 264° (W) 04:21:09 29.354- 29.394
AO-85 28 Feb 04:14:17 04:18:36 51° 312° (NW) 04:22:41 145.980
CUBESAT XI-V 28 Feb 04:25:41 04:29:54 33° 264° (W) 04:34:07 437.345
STRAND 1 28 Feb 04:27:55 04:30:21 13° 54° (NE) 04:32:47 437.568
AO-7 28 Feb 04:29:17 04:37:28 63° 296° (WNW) 04:45:34 .
ITAMSAT 1 28 Feb 04:31:43 04:35:56 25° 299° (WNW) 04:40:08 435.822/435.867
DOVE 4 28 Feb 04:53:57 04:57:29 20° 92° (E) 05:01:08 437.250
M-CUBED/EXP-1 PRIME 28 Feb 04:56:30 04:58:44 17° 261° (W) 05:00:59 437.505
KAITUO 1B 28 Feb 05:03:10 05:05:03 13° 90° (E) 05:06:57 145.475/437.950
BEESAT 3 28 Feb 05:12:10 05:15:57 50° 122° (ESE) 05:19:49 437.485
XW-2F 28 Feb 05:12:17 05:15:09 20° 93° (E) 05:18:00 145.980 - 146.000
XW-2D 28 Feb 05:18:36 05:21:48 25° 94° (E) 05:24:57 145.860 - 145.880
SO-50 28 Feb 05:19:39 05:24:10 69° 50° (NE) 05:28:38 436.795
XW-2B 28 Feb 05:23:39 05:26:58 27° 95° (E) 05:30:14 145.730 - 145.750
XW-2C 28 Feb 05:32:17 05:35:48 34° 97° (E) 05:39:17 145.795 - 145.815
NUDT-PHONESAT 28 Feb 05:33:13 05:36:32 28° 96° (E) 05:39:48 437.300
Tancredo 1 28 Feb 05:43:21 05:44:25 11° 133° (SE) 05:45:28 437.200
HO-68 28 Feb 05:48:30 05:52:04 14° 85° (E) 05:55:37 435.675
LilacSat-2 28 Feb 05:52:17 05:56:07 61° 101° (E) 05:59:53 437.200
BEESAT 2 28 Feb 05:57:09 06:01:03 62° 123° (ESE) 06:05:02 435.950
O/OREOS (USA 219) 28 Feb 05:57:30 06:00:46 19° 48° (NE) 06:04:01 437.305
AO-85 28 Feb 05:58:02 05:59:54 13° 333° (NNW) 06:01:43 145.980
XW-2A 28 Feb 05:59:32 06:00:07 10° 89° (E) 06:00:42 145.665 - 145.685
CUTE-I 28 Feb 06:00:51 06:06:12 60° 101° (E) 06:11:30 437.470
STRAND 1 28 Feb 06:03:33 06:08:41 78° 73° (ENE) 06:13:53 437.568
AO-7 28 Feb 06:23:27 06:28:40 19° 319° (NW) 06:33:53 .
DOVE 4 28 Feb 06:30:49 06:35:27 55° 288° (WNW) 06:40:20 437.250
KAITUO 1B 28 Feb 06:35:44 06:39:25 52° 288° (WNW) 06:43:03 145.475/437.950
CUBEBUG 2 28 Feb 06:40:42 06:43:14 14° 87° (E) 06:45:44 437.445
SEEDS 28 Feb 06:41:08 06:43:55 17° 91° (E) 06:46:40 437.485
XW-2F 28 Feb 06:45:56 06:49:25 34° 291° (WNW) 06:52:52 145.980 - 146.000
BEESAT 3 28 Feb 06:50:34 06:53:49 24° 321° (NW) 06:57:06 437.485
XW-2D 28 Feb 06:52:40 06:55:59 28° 292° (WNW) 06:59:16 145.860 - 145.880
XW-2B 28 Feb 06:57:52 07:01:06 26° 293° (WNW) 07:04:17 145.730 - 145.750
ISS 28 Feb 06:59:17 07:02:26 45° 147° (SSE) 07:05:37 437.550
SO-50 28 Feb 07:01:13 07:04:07 17° 249° (WSW) 07:06:59 436.795
XW-2C 28 Feb 07:06:53 07:09:50 21° 295° (WNW) 07:12:45 145.795 - 145.815
NUDT-PHONESAT 28 Feb 07:07:17 07:10:22 24° 293° (WNW) 07:13:25 437.300
UWE-3 28 Feb 07:11:00 07:14:08 18° 89° (E) 07:17:13 435.000/436.395/437.385
Tancredo 1 28 Feb 07:16:54 07:20:07 64° 151° (SSE) 07:23:22 437.200
CUTE 1.7 + AOD 2 28 Feb 07:24:27 07:28:41 72° 102° (ESE) 07:32:52 437.475
ZACube-1 28 Feb 07:25:18 07:27:50 15° 88° (E) 07:30:18 437.345
PRISM 28 Feb 07:25:27 07:28:46 24° 65° (ENE) 07:32:05 437.425
LilacSat-2 28 Feb 07:27:59 07:29:55 13° 299° (WNW) 07:31:50 437.200
XW-2A 28 Feb 07:29:51 07:33:16 58° 286° (WNW) 07:36:40 145.665 - 145.685
HO-68 28 Feb 07:33:51 07:41:02 73° 105° (ESE) 07:48:11 435.675
O/OREOS (USA 219) 28 Feb 07:36:05 07:40:39 68° 248° (WSW) 07:45:13 437.305
BEESAT 2 28 Feb 07:36:06 07:39:12 21° 323° (NW) 07:42:21 435.950
CUTE-I 28 Feb 07:41:39 07:45:51 24° 300° (WNW) 07:50:02 437.470
STRAND 1 28 Feb 07:45:28 07:48:28 15° 271° (W) 07:51:29 437.568
AAUSAT CUBESAT 2 28 Feb 07:55:29 07:59:31 51° 99° (E) 08:03:31 437.432
FO-29 28 Feb 08:05:19 08:11:32 29° 56° (ENE) 08:18:00 435.910
AO-73 28 Feb 08:10:39 08:14:52 36° 96° (E) 08:18:58 145.935
Oscar 11 28 Feb 08:13:24 08:17:19 32° 96° (E) 08:21:12 .
CUBEBUG 2 28 Feb 08:15:37 08:20:25 76° 285° (WNW) 08:25:06 437.445
SEEDS 28 Feb 08:15:50 08:19:53 49° 289° (WNW) 08:23:53 437.485
YUBILEINY 28 Feb 08:18:32 08:25:09 25° 78° (ENE) 08:31:43 435.215
TIGRISAT 28 Feb 08:32:15 08:36:37 48° 70° (ENE) 08:41:06 435.000
UNISAT 6 28 Feb 08:32:54 08:37:19 52° 71° (ENE) 08:41:52 437.425
ISS 28 Feb 08:35:41 08:38:55 48° 346° (NNW) 08:42:09 437.550
UWE-3 28 Feb 08:46:21 08:50:58 59° 288° (WNW) 08:55:29 435.000/436.395/437.385
Tancredo 1 28 Feb 08:53:25 08:56:32 41° 350° (N) 08:59:39 437.200
EO-79 28 Feb 08:57:04 08:57:12 10° 56° (NE) 08:57:21 145.935-145.965
DELFI C3 28 Feb 08:59:45 09:03:19 32° 96° (E) 09:06:50 145.870
ZACube-1 28 Feb 09:00:02 09:04:36 68° 287° (WNW) 09:09:03 437.345
PRISM 28 Feb 09:00:13 09:03:55 33° 263° (W) 09:07:38 437.425
CUTE 1.7 + AOD 2 28 Feb 09:01:49 09:03:59 14° 300° (WNW) 09:06:08 437.475
NANOSAT C BR1 28 Feb 09:10:05 09:11:58 13° 58° (ENE) 09:13:51 145.865
POLYITAN 1 28 Feb 09:13:08 09:15:33 15° 60° (ENE) 09:17:58 437.675
QB50P2 28 Feb 09:15:54 09:18:36 17° 61° (ENE) 09:21:19 145.880/145.840
HO-68 28 Feb 09:22:22 09:28:11 28° 305° (NW) 09:33:59 435.675
AO-85 28 Feb 09:23:34 09:24:41 11° 24° (NNE) 09:25:48 145.980
AAUSAT CUBESAT 2 28 Feb 09:31:55 09:34:37 17° 298° (WNW) 09:37:19 437.432
AO-73 28 Feb 09:47:06 09:50:57 27° 295° (WNW) 09:54:43 145.935
FO-29 28 Feb 09:48:26 09:55:48 76° 257° (WSW) 10:03:43 435.910
Oscar 11 28 Feb 09:49:41 09:53:22 28° 294° (WNW) 09:57:02 .
CUBEBUG 2 28 Feb 09:54:30 09:56:11 12° 304° (NW) 09:57:52 437.445
TIGRISAT 28 Feb 10:10:07 10:13:34 21° 269° (W) 10:17:06 435.000
UNISAT 6 28 Feb 10:11:04 10:14:22 19° 270° (W) 10:17:43 437.425
YUBILEINY 28 Feb 10:12:05 10:20:55 82° 280° (W) 10:29:46 435.215
ISS 28 Feb 10:12:39 10:15:48 38° 6° (N) 10:18:55 437.550
DUCHIFAT 1 28 Feb 10:13:27 10:17:29 45° 70° (ENE) 10:21:33 145.980
LO-87 28 Feb 10:17:30 10:20:44 30° 97° (E) 10:23:57 145.935 - 145.965
AIST 2D 28 Feb 10:18:38 10:22:13 82° 256° (WSW) 10:25:49 435.315
EO-79 28 Feb 10:27:58 10:32:11 77° 75° (ENE) 10:36:28 145.935-145.965
Tancredo 1 28 Feb 10:30:06 10:33:12 41° 9° (N) 10:36:18 437.200
DELFI C3 28 Feb 10:34:48 10:37:58 24° 294° (WNW) 10:41:08 145.870
ESTCUBE 1 28 Feb 10:42:11 10:46:12 31° 96° (E) 10:50:11 437.505/2401.250
NANOSAT C BR1 28 Feb 10:42:50 10:47:03 81° 256° (WSW) 10:51:20 145.865
POLYITAN 1 28 Feb 10:46:34 10:50:48 69° 258° (WSW) 10:55:06 437.675
QB50P2 28 Feb 10:49:46 10:53:57 59° 259° (W) 10:58:11 145.880/145.840
VELOX 1 28 Feb 10:54:09 10:56:37 15° 90° (E) 10:59:05 145.980
BUGSAT 1 28 Feb 10:57:01 11:00:56 47° 71° (ENE) 11:04:57 437.445
AO-85 28 Feb 11:02:18 11:06:05 45° 47° (NE) 11:09:53 145.980
Gurwin Techsat 1B 28 Feb 11:26:23 11:30:25 22° 59° (ENE) 11:34:26 435.225
FO-29 28 Feb 11:37:34 11:42:07 17° 278° (W) 11:46:51 435.910
ISS 28 Feb 11:49:11 11:52:30 89° 189° (S) 11:55:47 437.550
BEESAT 3 28 Feb 11:49:15 11:51:51 16° 32° (NNE) 11:54:28 437.485
DUCHIFAT 1 28 Feb 11:50:22 11:53:23 19° 268° (W) 11:56:26 145.980
AO-7 28 Feb 11:50:32 11:55:49 19° 41° (NE) 12:01:04 .
LO-87 28 Feb 11:51:16 11:54:03 21° 294° (WNW) 11:56:49 145.935 - 145.965
Oscar 19 28 Feb 11:52:31 11:57:32 57° 70° (ENE) 12:02:35 437.125/150
50 SAT 28 Feb 12:04:48 12:08:12 51° 100° (E) 12:11:36 437.505
Tancredo 1 28 Feb 12:06:23 12:09:37 66° 209° (SSW) 12:12:49 437.200
EO-79 28 Feb 12:07:02 12:08:30 12° 272° (W) 12:09:58 145.935-145.965
DX 1 28 Feb 12:09:33 12:13:37 36° 98° (E) 12:17:39 434.975-435.025
SPROUT 28 Feb 12:11:37 12:15:56 73° 102° (ESE) 12:20:15 437.525
YUBILEINY 28 Feb 12:12:57 12:19:16 21° 304° (WNW) 12:25:36 435.215
UKube-1 28 Feb 12:14:55 12:18:46 30° 96° (E) 12:22:35 .
ESTCUBE 1 28 Feb 12:19:02 12:22:58 31° 294° (WNW) 12:26:53 437.505/2401.250
VELOX 1 28 Feb 12:29:08 12:33:31 65° 287° (WNW) 12:37:55 145.980
BUGSAT 1 28 Feb 12:33:49 12:36:35 17° 269° (W) 12:39:23 437.445
BEESAT 2 28 Feb 12:34:53 12:37:48 19° 35° (NE) 12:40:43 435.950
ITAMSAT 1 28 Feb 12:35:32 12:39:04 19° 57° (ENE) 12:42:37 435.822/435.867
AO-85 28 Feb 12:43:15 12:46:12 21° 245° (WSW) 12:49:11 145.980
Gurwin Techsat 1B 28 Feb 13:04:39 13:09:54 63° 258° (WSW) 13:15:13 435.225
BEESAT 3 28 Feb 13:26:02 13:30:05 85° 53° (NE) 13:34:06 437.485
ISS 28 Feb 13:26:21 13:28:35 17° 223° (SW) 13:30:48 437.550
Oscar 19 28 Feb 13:33:21 13:37:13 21° 268° (W) 13:41:06 437.125/150
AO-7 28 Feb 13:38:50 13:47:01 63° 64° (ENE) 13:55:14 .
ITUPSAT 1 28 Feb 13:38:51 13:42:14 19° 91° (E) 13:45:35 437.325
50 SAT 28 Feb 13:39:18 13:40:56 13° 298° (WNW) 13:42:34 437.505
BEESAT 28 Feb 13:42:55 13:46:32 21° 92° (E) 13:50:06 436.000
Tancredo 1 28 Feb 13:44:11 13:45:20 11° 227° (SW) 13:46:28 437.200
DX 1 28 Feb 13:46:03 13:49:39 26° 296° (WNW) 13:53:14 434.975-435.025
SPROUT 28 Feb 13:49:01 13:51:18 14° 301° (WNW) 13:53:36 437.525
UKube-1 28 Feb 13:50:59 13:54:45 30° 294° (WNW) 13:58:31 .
BEESAT 2 28 Feb 14:12:00 14:16:05 79° 235° (SW) 14:20:07 435.950
ITAMSAT 1 28 Feb 14:12:44 14:17:57 76° 256° (WSW) 14:23:13 435.822/435.867
RS-15 28 Feb 14:13:45 14:18:47 14° 91° (E) 14:23:51 29.354- 29.394
PCSat 28 Feb 14:26:14 14:30:43 27° 110° (ESE) 14:35:15 145.827
BEESAT 3 28 Feb 15:05:43 15:07:04 11° 251° (WSW) 15:08:25 437.485
MOZHAYETS 4 28 Feb 15:09:26 15:13:59 55° 100° (E) 15:18:28
KKS-1 28 Feb 15:15:37 15:18:35 17° 91° (E) 15:21:33 437.445
ITUPSAT 1 28 Feb 15:15:43 15:20:26 58° 289° (WNW) 15:25:07 437.325
BEESAT 28 Feb 15:19:57 15:24:36 52° 290° (WNW) 15:29:13 436.000
NO-84 28 Feb 15:25:40 15:28:26 28° 134° (SE) 15:31:26 435.350 FM
AO-7 28 Feb 15:32:47 15:40:14 35° 264° (W) 15:47:43 .
STARS 28 Feb 15:40:08 15:42:31 14° 90° (E) 15:44:52 437.465
KAITUO 1B 28 Feb 15:47:16 15:48:35 12° 60° (ENE) 15:49:55 145.475/437.950
CUTE-I 28 Feb 15:47:43 15:51:42 22° 59° (ENE) 15:55:43 437.470
XW-2F 28 Feb 15:56:42 15:59:12 17° 63° (ENE) 16:01:43 145.980 - 146.000
ITAMSAT 1 28 Feb 15:57:15 15:58:19 11° 275° (W) 15:59:22 435.822/435.867
DOVE 4 28 Feb 16:03:02 16:06:23 24° 65° (ENE) 16:09:49 437.250
XW-2D 28 Feb 16:03:08 16:06:01 21° 65° (ENE) 16:08:56 145.860 - 145.880
XW-2B 28 Feb 16:08:07 16:11:08 22° 66° (ENE) 16:14:10 145.730 - 145.750
PCSat 28 Feb 16:08:30 16:13:49 54° 310° (NW) 16:19:10 145.827
NUDT-PHONESAT 28 Feb 16:15:53 16:18:51 22° 66° (ENE) 16:21:49 437.300
XW-2C 28 Feb 16:16:35 16:19:53 27° 68° (ENE) 16:23:11 145.795 - 145.815
RS-15 28 Feb 16:16:43 16:28:16 58° 115° (ESE) 16:40:12 29.354- 29.394
CUBESAT XI-V 28 Feb 16:18:22 16:22:49 47° 99° (E) 16:27:14 437.345
HO-68 28 Feb 16:21:10 16:25:47 19° 48° (NE) 16:30:24 435.675
M-CUBED/EXP-1 PRIME 28 Feb 16:30:34 16:33:00 16° 99° (E) 16:35:31 437.505
LilacSat-2 28 Feb 16:36:49 16:40:33 46° 72° (ENE) 16:44:18 437.200
MOZHAYETS 4 28 Feb 16:47:26 16:50:45 20° 298° (WNW) 16:54:03
KKS-1 28 Feb 16:51:05 16:55:30 56° 289° (WNW) 16:59:52 437.445
NO-84 28 Feb 17:02:42 17:05:55 47° 335° (NNW) 17:09:28 435.350 FM
STARS 28 Feb 17:14:54 17:19:19 68° 287° (WNW) 17:23:44 437.465
KAITUO 1B 28 Feb 17:18:16 17:22:04 74° 259° (W) 17:25:54 145.475/437.950
CUTE-I 28 Feb 17:25:59 17:31:17 65° 258° (WSW) 17:36:39 437.470
XW-2F 28 Feb 17:29:18 17:33:01 46° 261° (W) 17:36:46 145.980 - 146.000
SEEDS 28 Feb 17:35:50 17:38:49 19° 63° (ENE) 17:41:49 437.485
XW-2D 28 Feb 17:36:25 17:40:00 36° 263° (W) 17:43:37 145.860 - 145.880
DOVE 4 28 Feb 17:40:09 17:43:57 35° 264° (W) 17:47:52 437.250
XW-2B 28 Feb 17:41:40 17:45:10 33° 263° (W) 17:48:43 145.730 - 145.750
CUBEBUG 2 28 Feb 17:41:40 17:44:40 18° 60° (ENE) 17:47:45 437.445
NUDT-PHONESAT 28 Feb 17:49:13 17:52:37 32° 264° (W) 17:56:04 437.300
XW-2C 28 Feb 17:50:45 17:54:03 26° 265° (W) 17:57:21 145.795 - 145.815
PCSat 28 Feb 17:55:11 17:58:28 16° 332° (NNW) 18:01:45 145.827
CUBESAT XI-V 28 Feb 17:56:21 17:59:54 22° 297° (WNW) 18:03:27 437.345
XW-2A 28 Feb 18:03:50 18:07:15 74° 74° (ENE) 18:10:41 145.665 - 145.685
M-CUBED/EXP-1 PRIME 28 Feb 18:03:56 18:07:40 53° 293° (WNW) 18:11:40 437.505
HO-68 28 Feb 18:05:15 18:12:23 74° 69° (ENE) 18:19:33 435.675
UWE-3 28 Feb 18:10:47 18:14:12 21° 62° (ENE) 18:17:41 435.000/436.395/437.385
STRAND 1 28 Feb 18:11:37 18:15:29 21° 91° (E) 18:19:18 437.568
LilacSat-2 28 Feb 18:12:39 18:15:05 16° 269° (W) 18:17:31 437.200
CUTE 1.7 + AOD 2 28 Feb 18:19:39 18:23:55 74° 74° (ENE) 18:28:11 437.475
YUBILEINY 28 Feb 18:23:24 18:28:03 15° 50° (NE) 18:32:40 435.215
ZACube-1 28 Feb 18:23:51 18:26:55 18° 61° (ENE) 18:30:00 437.345
RS-15 28 Feb 18:29:05 18:41:00 58° 321° (NW) 18:53:15 29.354- 29.394
NO-84 28 Feb 18:41:15 18:44:14 25° 357° (N) 18:47:27 435.350 FM
AAUSAT CUBESAT 2 28 Feb 18:48:15 18:52:16 51° 72° (ENE) 18:56:17 437.432
AO-73 28 Feb 19:08:38 19:12:52 41° 69° (ENE) 19:17:10 145.935
SEEDS 28 Feb 19:10:05 19:14:11 48° 261° (W) 19:18:18 437.485
Oscar 11 28 Feb 19:10:54 19:14:54 37° 69° (ENE) 19:18:56 .
CUBEBUG 2 28 Feb 19:16:18 19:20:46 64° 259° (WSW) 19:25:25 437.445
UWE-3 28 Feb 19:45:54 19:50:18 50° 261° (W) 19:54:50 435.000/436.395/437.385
DELFI C3 28 Feb 19:48:13 19:51:38 29° 68° (ENE) 19:55:04 145.870
STRAND 1 28 Feb 19:49:57 19:55:02 58° 290° (WNW) 20:00:04 437.568
HO-68 28 Feb 19:55:06 20:00:46 25° 269° (W) 20:06:27 435.675
ZACube-1 28 Feb 19:58:16 20:02:43 61° 259° (W) 20:07:17 437.345
CUTE 1.7 + AOD 2 28 Feb 19:58:34 20:00:15 12° 272° (W) 20:01:57 437.475
YUBILEINY 28 Feb 20:18:27 20:27:06 60° 75° (ENE) 20:35:40 435.215
NO-84 28 Feb 20:19:13 20:22:41 33° 18° (NNE) 20:26:25 435.350 FM
AAUSAT CUBESAT 2 28 Feb 20:25:22 20:28:01 16° 269° (W) 20:30:41 437.432
PRISM 28 Feb 20:38:15 20:41:37 24° 95° (E) 20:44:58 437.425
AO-73 28 Feb 20:45:35 20:49:15 24° 268° (W) 20:52:58 145.935
RS-15 28 Feb 20:45:51 20:56:50 35° 353° (N) 21:07:49 29.354- 29.394
Oscar 11 28 Feb 20:47:35 20:51:09 24° 267° (W) 20:54:43 .
FO-29 28 Feb 20:56:59 21:01:38 17° 82° (E) 21:06:00 435.910
LO-87 28 Feb 20:57:06 20:59:48 21° 66° (ENE) 21:02:31 145.935 - 145.965
SO-50 28 Feb 21:16:26 21:21:04 70° 125° (SE) 21:25:41 436.795
DELFI C3 28 Feb 21:23:05 21:26:25 26° 265° (W) 21:29:47 145.870
PCSat 28 Feb 21:27:25 21:30:23 15° 25° (NNE) 21:33:21 145.827
STRAND 1 28 Feb 21:32:34 21:33:09 10° 309° (NW) 21:33:44 437.568
SPROUT 28 Feb 21:35:46 21:36:43 11° 57° (ENE) 21:37:41 437.525
ESTCUBE 1 28 Feb 21:44:26 21:48:40 42° 69° (ENE) 21:52:56 437.505/2401.250
O/OREOS (USA 219) 28 Feb 21:51:14 21:55:42 77° 113° (ESE) 22:00:14 437.305
VELOX 1 28 Feb 21:54:12 21:57:23 20° 62° (ENE) 22:00:36 145.980
NO-84 28 Feb 21:56:42 22:00:39 75° 216° (SW) 22:04:53 435.350 FM
TIGRISAT 28 Feb 21:56:51 22:01:34 69° 102° (ESE) 22:06:11 435.000
UNISAT 6 28 Feb 21:57:46 22:02:30 75° 103° (ESE) 22:07:08 437.425
EO-79 28 Feb 22:12:42 22:12:56 10° 87° (E) 22:13:11 145.935-145.965
PRISM 28 Feb 22:13:17 22:16:58 33° 292° (WNW) 22:20:38 437.425
YUBILEINY 28 Feb 22:15:54 22:23:25 34° 277° (W) 22:30:56 435.215
NANOSAT C BR1 28 Feb 22:25:31 22:27:36 13° 89° (E) 22:29:40 145.865
POLYITAN 1 28 Feb 22:29:18 22:31:59 16° 90° (E) 22:34:38 437.675
LO-87 28 Feb 22:29:59 22:33:07 29° 264° (W) 22:36:17 145.935 - 145.965
QB50P2 28 Feb 22:32:12 22:35:11 18° 91° (E) 22:38:10 145.880/145.840
FO-29 28 Feb 22:40:15 22:47:57 81° 104° (ESE) 22:54:49 435.910
50 SAT 28 Feb 22:41:45 22:44:54 33° 69° (ENE) 22:48:03 437.505
SO-50 28 Feb 22:58:12 23:01:59 24° 325° (NW) 23:05:44 436.795
RS-15 28 Feb 23:01:41 23:13:24 44° 27° (NNE) 23:24:49 29.354- 29.394
SPROUT 28 Feb 23:07:38 23:11:54 82° 74° (ENE) 23:16:12 437.525
DX 1 28 Feb 23:07:48 23:11:57 47° 70° (ENE) 23:16:07 434.975-435.025
PCSat 28 Feb 23:09:55 23:15:11 47° 49° (NE) 23:20:25 145.827
UKube-1 28 Feb 23:12:09 23:16:07 38° 68° (ENE) 23:20:08 .
AIST 2D 28 Feb 23:13:55 23:17:30 80° 103° (ESE) 23:21:02 435.315
ESTCUBE 1 28 Feb 23:22:04 23:25:39 23° 267° (W) 23:29:14 437.505/2401.250
VELOX 1 28 Feb 23:29:16 23:33:31 49° 260° (W) 23:37:48 145.980
DUCHIFAT 1 28 Feb 23:29:34 23:33:47 54° 100° (E) 23:37:57 145.980
O/OREOS (USA 219) 28 Feb 23:32:46 23:35:42 17° 314° (NW) 23:38:38 437.305
TIGRISAT 28 Feb 23:34:41 23:37:43 17° 300° (WNW) 23:40:44 435.000
NO-84 28 Feb 23:35:35 23:37:52 15° 232° (SW) 23:40:14 435.350 FM
UNISAT 6 28 Feb 23:35:47 23:38:36 16° 301° (WNW) 23:41:25 437.425
EO-79 28 Feb 23:45:00 23:49:19 88° 287° (WNW) 23:53:37 145.935-145.965
NANOSAT C BR1 28 Feb 23:59:31 00:03:47 68° 287° (WNW) 00:08:00 145.865
Oscar 19 01 Mar 00:02:06 00:05:04 15° 89° (E) 00:08:00 437.125/150
POLYITAN 1 01 Mar 00:03:54 00:08:08 56° 288° (WNW) 00:12:19 437.675
QB50P2 01 Mar 00:07:06 00:11:15 49° 289° (WNW) 00:15:23 145.880/145.840
BUGSAT 1 01 Mar 00:10:31 00:14:42 53° 100° (E) 00:18:51 437.445
50 SAT 01 Mar 00:15:41 00:18:07 18° 267° (W) 00:20:33 437.505
FO-29 01 Mar 00:26:04 00:32:06 26° 306° (NW) 00:37:43 435.910
MOZHAYETS 4 01 Mar 00:40:53 00:42:13 11° 55° (NE) 00:43:34
DX 1 01 Mar 00:45:18 00:48:23 19° 268° (W) 00:51:30 434.975-435.025
SPROUT 01 Mar 00:47:15 00:48:24 11° 273° (W) 00:49:33 437.525
ITUPSAT 1 01 Mar 00:48:12 00:52:27 32° 65° (ENE) 00:56:43 437.325
UKube-1 01 Mar 00:48:51 00:52:17 23° 266° (W) 00:55:45 .
BEESAT 01 Mar 00:51:58 00:56:17 35° 66° (ENE) 01:00:37 436.000
PCSat 01 Mar 00:53:37 00:58:26 33° 248° (WSW) 01:03:12 145.827
DUCHIFAT 1 01 Mar 01:06:10 01:09:04 18° 298° (WNW) 01:11:57 145.980
RS-15 01 Mar 01:15:01 01:27:27 86° 236° (SW) 01:39:22 29.354- 29.394
Gurwin Techsat 1B 01 Mar 01:17:37 01:22:39 41° 98° (E) 01:27:39 435.225
EO-79 01 Mar 01:22:56 01:24:24 12° 303° (WNW) 01:25:52 145.935-145.965
AO-7 01 Mar 01:39:08 01:43:14 14° 85° (E) 01:47:19 .
Oscar 19 01 Mar 01:39:51 01:45:00 78° 286° (WNW) 01:50:06 437.125/150
BUGSAT 1 01 Mar 01:46:46 01:49:41 18° 298° (WNW) 01:52:36 437.445
